www.pogodaiklimat.ru

Погода и климат >> Архив погоды >> Швейцария >> Кресье


ПОГОДА в Кресье

  • Прогноз погоды в Кресье
  • Монитор погоды в Кресье

АРХИВ ПОГОДЫ в Кресье

Время (UTC), дата Ветер
(напр.,м/с)
 
Видим.   Явления Облачность Т
(С)
Тd
(С)
f
(%)
Тe
(С)
Тes
(С)
Комфортность P
(гПа)
Po
(гПа)
Тmin
(С)
Tmax
(С)
R
(мм)
R24
(мм)
S
(см)
16 14.07 С 9
{14}
н/о н/о +20.6 +11.3 55 +22 +22 комфорт 1011.5 962.5
17 14.07 С 10
{18}
н/о н/о +18.8 +10.7 59 +18 +18 1012.2 962.9
18 14.07 С 8
{18}
н/о н/о +17.8 +10.7 63 +17 +17 1012.9 963.4 +25.1
19 14.07 С 8
{13}
н/о н/о +15.7 +12.4 81 +14 +14 1014.1 964.1 2
20 14.07 СВ 5
{12}
н/о н/о +15.7 +11.4 76 +15 +15 1014.7 964.7
21 14.07 С 3
{13}
н/о н/о +15.0 +11.2 78 +14 +14 1015.3 965.2
22 14.07 В 4
{8}
н/о н/о +14.7 +13.1 90 +14 +14 1015.4 965.2
23 14.07 В 3
{5}
н/о н/о +14.5 +12.7 89 +14 +14 1015.6 965.4
00 15.07 СВ 5
{13}
н/о н/о +14.3 +12.3 88 +13 +13 1014.4 964.2
01 15.07 СВ 3
{9}
н/о н/о +14.3 +13.2 93 +13 +13 1014.5 964.3
02 15.07 В 2
{5}
н/о н/о +14.2 +13.9 98 +14 +14 1014.1 963.9 0.6
03 15.07 Ю 1
{9}
н/о н/о +13.9 +13.8 99 +15 +15 1014.2 963.9 0.1
04 15.07 СВ 3
{6}
н/о н/о +14.4 +13.3 93 +13 +13 1014.1 963.9 0.1
05 15.07 СВ 3
{10}
н/о н/о +14.4 +11.9 85 +14 +14 1014.2 964.0
06 15.07 С 5
{10}
н/о н/о +15.1 +11.7 80 +14 +14 1014.1 964.0 +13.6
07 15.07 С 6
{10}
н/о н/о +15.5 +11.2 76 +14 +14 1014.6 964.6
08 15.07 В 5
{10}
н/о н/о +17.2 +11.7 70 +17 +17 1014.6 964.9
09 15.07 СВ 5
{10}
н/о н/о +17.7 +11.6 67 +17 +17 1014.8 965.2
10 15.07 В 6
{10}
н/о н/о +19.0 +12.4 66 +19 +19 1014.4 965.0
11 15.07 В 6
{11}
н/о н/о +18.4 +11.8 65 +18 +18 1015.0 965.5
12 15.07 В 5
{11}
н/о н/о +19.8 +11.8 60 +21 +21 комфорт 1014.7 965.4
13 15.07 В 6
{10}
н/о н/о +22.2 +10.6 48 +24 +24 комфорт 1014.0 965.2
14 15.07 В 5
{10}
н/о н/о +21.9 +10.5 48 +24 +24 комфорт 1014.3 965.4
15 15.07 СВ 4
{10}
н/о н/о +21.9 +11.0 50 +24 +24 комфорт 1014.2 965.3
16 15.07 В 4
{8}
н/о н/о +21.8 +11.5 52 +24 +24 комфорт 1014.0 965.1
17 15.07 В 3
{6}
н/о н/о +22.8 +11.6 49 +25 +25 комфорт 1013.9 965.2
18 15.07 С 4
{10}
н/о н/о +21.2 +11.7 55 +23 +23 комфорт 1014.5 965.5 +22.8
19 15.07 С 4
{7}
н/о н/о +19.6 +11.8 61 +21 +21 комфорт 1015.1 965.8
20 15.07 С 5
{8}
н/о н/о +19.0 +11.9 63 +20 +20 1015.7 966.2
21 15.07 С 5
{9}
н/о н/о +18.3 +12.0 67 +18 +18 1016.2 966.6
22 15.07 С 3
{8}
н/о н/о +17.9 +12.1 69 +18 +18 1016.6 966.9
23 15.07 В 1
{6}
н/о н/о +14.7 +12.2 85 +15 +15 1017.3 967.0
00 16.07 В 1
{9}
н/о н/о +14.9 +13.1 89 +15 +15 1017.1 966.9
01 16.07 СВ 3
{6}
н/о н/о +16.5 +12.1 75 +16 +16 1017.0 967.0
02 16.07 С 1
{5}
н/о н/о +13.1 +12.1 94 +14 +14 1017.8 967.2
03 16.07 В 2
{6}
н/о н/о +11.9 +11.7 99 +11 +11 1017.9 967.1
04 16.07 СВ 1
{3}
н/о н/о +12.8 +11.5 92 +13 +13 1017.8 967.1
05 16.07 ЮЗ 1
{1}
н/о н/о +12.5 +12.4 99 +12 +12 1018.2 967.5
06 16.07 ЮВ 1
{6}
н/о н/о +16.1 +14.2 88 +17 +17 1017.7 967.6 +11.4
07 16.07 В 3
{5}
н/о н/о +17.8 +13.0 73 +18 +18 1017.3 967.6
08 16.07 В 2
{4}
н/о н/о +19.0 +12.9 68 +21 +21 комфорт 1017.3 967.8
09 16.07 В 3
{5}
н/о н/о +20.2 +12.8 62 +22 +22 комфорт 1016.7 967.4
10 16.07 В 3
{4}
н/о н/о +22.6 +13.4 56 +26 +26 жарко 1016.1 967.2
11 16.07 В 3
{4}
н/о н/о +24.0 +13.2 51 +26 +26 жарко 1015.6 967.0
12 16.07 СВ 3
{5}
н/о н/о +25.7 +11.5 41 +27 +27 жарко 1014.7 966.4
13 16.07 В 3
{4}
н/о н/о +26.4 +10.9 38 +27 +27 жарко 1014.1 966.0
14 16.07 В 3
{4}
н/о н/о +26.7 +10.6 36 +27 +27 жарко 1013.8 965.7
15 16.07 В 3
{4}
н/о н/о +26.7 +9.6 34 +27 +27 жарко 1013.5 965.5
16 16.07 В 2
{3}
н/о н/о +26.8 +9.2 33 +27 +27 жарко 1013.1 965.1
17 16.07 В 2
{3}
н/о н/о +26.5 +9.9 35 +27 +27 жарко 1013.1 965.0
18 16.07 В 1
{4}
н/о н/о +25.3 +13.6 48 +27 +27 жарко 1013.4 965.1 +27.0
19 16.07 С 3
{4}
н/о н/о +22.5 +10.1 45 +24 +24 комфорт 1014.1 965.3
20 16.07 СВ 3
{5}
н/о н/о +21.9 +9.3 45 +23 +23 комфорт 1014.5 965.6
21 16.07 СВ 3
{5}
н/о н/о +21.2 +8.6 44 +22 +22 комфорт 1014.7 965.7
22 16.07 ЮЗ 1
{5}
н/о н/о +17.2 +11.3 68 +19 +19 1015.8 966.0
23 16.07 СЗ 1
{2}
н/о н/о +14.8 +11.0 78 +16 +16 1016.2 966.0
00 17.07 штиль 0
{5}
н/о н/о +14.1 +11.4 84 +14 +14 1016.4 966.0
01 17.07 СВ 1
{2}
н/о н/о +13.6 +10.8 83 +14 +14 1016.2 965.8
02 17.07 ЮЗ 1
{2}
н/о н/о +12.4 +11.3 93 +13 +13 1016.2 965.6
03 17.07 З 1
{2}
н/о н/о +12.0 +11.1 94 +13 +13 1016.3 965.6
04 17.07 СЗ 1
{1}
н/о н/о +10.9 +10.7 99 +11 +11 1016.5 965.6
05 17.07 З 1
{1}
н/о н/о +12.3 +11.8 97 +13 +13 1016.1 965.4
06 17.07 Ю 1
{2}
н/о н/о +16.1 +13.2 83 +17 +17 1015.2 965.3 +10.9
07 17.07 штиль 0
{1}
н/о н/о +18.5 +11.7 65 +19 +19 1014.9 965.4
08 17.07 ЮЗ 1
{2}
н/о н/о +20.2 +12.4 61 +23 +23 комфорт 1014.5 965.3
09 17.07 Ю 2
{3}
н/о н/о +22.4 +12.0 52 +25 +25 комфорт 1013.8 965.0
10 17.07 ЮЗ 1
{3}
н/о н/о +23.6 +10.1 42 +25 +25 комфорт 1013.4 964.8
11 17.07 ЮЗ 2
{4}
н/о н/о +25.0 +10.4 40 +26 +26 жарко 1012.8 964.5
12 17.07 Ю 2
{4}
н/о н/о +25.5 +10.9 40 +27 +27 жарко 1012.2 964.0
13 17.07 Ю 3
{5}
н/о н/о +26.8 +10.4 36 +28 +28 жарко 1011.4 963.5
14 17.07 Ю 2
{4}
н/о н/о +27.6 +11.2 36 +28 +28 жарко 1010.9 963.1
15 17.07 ЮЗ 2
{5}
н/о н/о +27.9 +8.7 30 +28 +28 жарко 1010.5 962.8
16 17.07 Ю 3
{5}
н/о н/о +27.2 +8.5 31 +27 +27 жарко 1010.2 962.4
17 17.07 СЗ 4
{6}
н/о н/о +27.9 +2.2 19 +26 +26 жарко 1010.0 962.3
18 17.07 СЗ 3
{6}
н/о н/о +25.9 +4.4 25 +25 +25 комфорт 1010.4 962.4 +28.2
19 17.07 С 6
{9}
н/о н/о +24.1 +3.5 26 +23 +23 комфорт 1010.7 962.4
20 17.07 СЗ 7
{11}
н/о н/о +23.7 +3.1 26 +23 +23 комфорт 1011.0 962.6
21 17.07 СЗ 5
{11}
н/о н/о +23.5 +3.6 27 +23 +23 комфорт 1011.4 962.9
22 17.07 СЗ 1
{4}
н/о н/о +18.0 +8.5 54 +20 +20 1012.8 963.3
23 17.07 В 1
{2}
н/о н/о +15.2 +9.6 69 +16 +16 1013.6 963.6
00 18.07 ЮВ 1
{11}
н/о н/о +14.9 +9.0 68 +16 +16 1013.7 963.6
01 18.07 Ю 1
{2}
н/о н/о +14.4 +10.6 78 +15 +15 1013.9 963.7
02 18.07 СЗ 1
{2}
н/о н/о +13.1 +10.5 84 +14 +14 1013.9 963.5
03 18.07 Ю 1
{2}
н/о н/о +13.3 +11.8 91 +14 +14 1014.0 963.6
04 18.07 Ю 1
{2}
н/о н/о +12.4 +11.2 92 +13 +13 1014.5 963.9
05 18.07 ЮЗ 1
{1}
н/о н/о +12.3 +11.5 95 +13 +13 1014.8 964.2
06 18.07 ЮЗ 1
{2}
н/о н/о +17.0 +13.3 79 +19 +19 1014.0 964.3 +11.6
07 18.07 З 1
{1}
н/о н/о +17.6 +13.2 75 +19 +19 1014.3 964.7
08 18.07 Ю 1
{2}
н/о н/о +20.9 +12.0 57 +24 +24 комфорт 1013.7 964.7
09 18.07 Ю 2
{3}
н/о н/о +23.0 +9.9 43 +25 +25 комфорт 1013.3 964.6
10 18.07 ЮЗ 2
{4}
н/о н/о +24.8 +9.0 37 +25 +25 комфорт 1013.0 964.7
11 18.07 З 2
{4}
н/о н/о +26.3 +8.8 33 +27 +27 жарко 1012.5 964.4
12 18.07 ЮЗ 2
{5}
н/о н/о +25.3 +10.3 39 +26 +26 жарко 1012.4 964.2
13 18.07 ЮЗ 1
{3}
н/о н/о +25.9 +9.1 35 +26 +26 жарко 1012.0 963.9
14 18.07 Ю 2
{3}
н/о н/о +26.3 +11.5 40 +28 +28 жарко 1011.8 963.8
15 18.07 Ю 1
{3}
н/о н/о +25.5 +12.2 44 +27 +27 жарко 1011.8 963.6
16 18.07 Ю 2
{2}
н/о н/о +24.7 +14.0 51 +27 +27 жарко 1011.7 963.4
17 18.07 Ю 1
{2}
н/о н/о +23.7 +15.1 59 +27 +27 жарко 1012.0 963.5
18 18.07 ЮВ 1
{3}
н/о н/о +24.1 +14.4 55 +27 +27 жарко 1012.1 963.7 +26.3
19 18.07 СЗ 1
{2}
н/о н/о +22.9 +14.7 60 +27 +27 душно 1013.0 964.3
20 18.07 ЮЗ 1
{3}
н/о н/о +21.5 +12.3 56 +24 +24 комфорт 1013.7 964.8
21 18.07 СЗ 4
{8}
н/о н/о +22.5 +10.2 46 +24 +24 комфорт 1013.9 965.1
22 18.07 Ю 1
{4}
н/о н/о +20.1 +11.7 58 +23 +23 комфорт 1014.6 965.4
23 18.07 СЗ 1
{2}
н/о н/о +17.7 +12.6 72 +19 +19 1015.6 965.9
00 19.07 ЮЗ 1
{8}
н/о н/о +16.9 +13.1 78 +18 +18 1015.7 965.9
01 19.07 СВ 1
{3}
н/о н/о +16.1 +12.5 79 +17 +17 1016.0 966.0
02 19.07 Ю 1
{2}
н/о н/о +16.2 +12.2 77 +18 +18 1016.1 966.1
03 19.07 СВ 1
{3}
н/о н/о +15.7 +12.3 80 +17 +17 1016.4 966.3
04 19.07 В 1
{2}
н/о н/о +13.8 +12.0 89 +15 +15 1016.9 966.5
05 19.07 штиль 0
{2}
н/о н/о +14.3 +13.5 95 +14 +14 1017.0 966.7
06 19.07 Ю 1
{3}
н/о н/о +18.1 +15.0 82 +20 +20 1016.7 967.0 +13.8
07 19.07 Ю 1
{1}
н/о н/о +20.0 +13.6 67 +24 +24 комфорт 1016.6 967.3
08 19.07 Ю 2
{4}
н/о н/о +21.8 +14.4 63 +25 +25 комфорт 1016.3 967.3
09 19.07 Ю 3
{5}
н/о н/о +23.1 +13.2 54 +26 +26 жарко 1016.0 967.2
10 19.07 Ю 3
{5}
н/о н/о +24.4 +12.7 48 +26 +26 жарко 1015.6 967.1
11 19.07 Ю 3
{6}
н/о н/о +25.3 +12.3 44 +27 +27 жарко 1015.1 966.7
12 19.07 Ю 3
{6}
н/о н/о +26.5 +12.1 41 +28 +28 жарко 1014.4 966.3
13 19.07 ЮЗ 3
{5}
н/о н/о +27.2 +11.0 36 +28 +28 жарко 1013.9 965.9
14 19.07 Ю 2
{5}
н/о н/о +27.5 +11.7 37 +28 +28 жарко 1013.4 965.5
15 19.07 З 1
{5}
н/о н/о +28.1 +11.0 34 +29 +29 жарко 1013.0 965.2
16 19.07 ЮЗ 2
{3}
н/о н/о +28.2 +12.3 37 +29 +29 жарко 1012.7 964.9
17 19.07 Ю 1
{3}
н/о н/о +27.9 +13.2 40 +30 +30 жарко 1012.4 964.6
18 19.07 Ю 1
{5}
н/о н/о +26.9 +15.9 51 +30 +30 душно 1012.5 964.5 +28.3
19 19.07 СВ 2
{2}
н/о н/о +23.3 +14.7 58 +27 +27 душно 1013.3 964.7
20 19.07 СВ 3
{4}
н/о н/о +24.0 +12.8 50 +26 +26 жарко 1013.6 965.1
21 19.07 С 3
{6}
н/о н/о +22.6 +12.5 53 +25 +25 комфорт 1014.2 965.4
22 19.07 СВ 2
{4}
н/о н/о +20.4 +12.9 62 +23 +23 комфорт 1014.9 965.7
23 19.07 С 3
{4}
н/о н/о +19.5 +12.8 65 +21 +21 комфорт 1015.1 965.8
00 20.07 С 1
{6}
н/о н/о +16.6 +13.4 81 +18 +18 1015.5 965.6
01 20.07 СВ 2
{3}
н/о н/о +15.8 +12.8 82 +16 +16 1015.3 965.3
02 20.07 СЗ 1
{6}
н/о н/о +15.5 +13.5 88 +16 +16 1015.6 965.5
03 20.07 ЮВ 1
{6}
н/о н/о +14.1 +13.4 96 +15 +15 1015.9 965.6
04 20.07 ЮВ 1
{1}
н/о н/о +14.4 +13.7 96 +15 +15 1016.1 965.8
05 20.07 Ю 1
{2}
н/о н/о +15.1 +15.0 99 +16 +16 1016.2 966.0
06 20.07 ЮЗ 1
{6}
н/о н/о +18.0 +15.6 86 +20 +20 1016.0 966.4 +12.9
07 20.07 Ю 1
{2}
н/о н/о +20.3 +15.1 72 +24 +24 комфорт 1015.8 966.6
08 20.07 Ю 1
{2}
н/о н/о +21.9 +15.6 67 +26 +26 душно 1015.7 966.7
09 20.07 Ю 3
{5}
н/о н/о +23.9 +14.5 56 +27 +27 жарко 1015.4 966.8
10 20.07 Ю 3
{6}
н/о н/о +25.2 +14.7 52 +28 +28 жарко 1015.1 966.7
11 20.07 ЮЗ 5
{9}
н/о н/о +27.5 +14.6 45 +30 +30 жарко 1014.6 966.6
12 20.07 ЮЗ 5
{10}
н/о н/о +28.4 +13.9 41 +30 +30 жарко 1014.2 966.4
13 20.07 ЮЗ 4
{10}
н/о н/о +28.6 +14.2 41 +31 +31 жарко 1014.1 966.3
14 20.07 ЮЗ 5
{10}
н/о н/о +28.7 +12.4 37 +30 +30 жарко 1014.0 966.3
15 20.07 ЮЗ 3
{10}
н/о н/о +27.9 +12.8 39 +29 +29 жарко 1014.1 966.2
16 20.07 ЮЗ 4
{8}
н/о н/о +28.9 +12.3 36 +30 +30 жарко 1013.5 965.8
17 20.07 ЮЗ 5
{7}
н/о н/о +28.6 +13.0 38 +30 +30 жарко 1013.5 965.8
18 20.07 Ю 3
{10}
н/о н/о +26.7 +12.8 42 +28 +28 жарко 1013.9 965.8 +29.7
19 20.07 З 1
{4}
н/о н/о +24.8 +14.1 51 +27 +27 жарко 1014.8 966.4
20 20.07 ЮЗ 1
{3}
н/о н/о +22.8 +14.0 58 +26 +26 жарко 1015.8 967.0
21 20.07 ЮЗ 1
{4}
н/о н/о +20.7 +15.2 71 +25 +25 комфорт 1016.8 967.6
22 20.07 З 2
{3}
н/о н/о +21.0 +14.6 67 +25 +25 комфорт 1017.2 968.0
23 20.07 З 2
{2}
н/о н/о +19.8 +15.7 77 +23 +23 комфорт 1017.9 968.5
00 21.07 ЮЗ 2
{4}
н/о н/о +20.6 +16.4 77 +25 +25 комфорт 1018.2 968.9
01 21.07 ЮЗ 5
{11}
н/о н/о +23.1 +16.1 65 +28 +28 душно 1018.3 969.4
02 21.07 ЮЗ 6
{11}
н/о н/о +22.1 +16.2 69 +26 +26 душно 1019.0 969.9
03 21.07 З 3
{12}
н/о н/о +21.6 +16.1 71 +25 +25 комфорт 1019.2 970.0
04 21.07 ЮЗ 1
{4}
н/о н/о +19.6 +17.9 90 +24 +24 комфорт 1019.9 970.3 0.5
05 21.07 СЗ 1
{3}
н/о н/о +19.1 +18.7 98 +22 +22 комфорт 1020.7 971.0 0.1
06 21.07 С 1
{12}
н/о н/о +20.4 +19.2 93 +26 +26 душно 1020.9 971.4 +19.0
07 21.07 ЮЗ 2
{4}
н/о н/о +21.6 +17.5 77 +26 +26 душно 1021.3 972.0
08 21.07 Ю 2
{3}
н/о н/о +23.2 +17.3 69 +28 +28 душно 1021.2 972.2
09 21.07 Ю 2
{4}
н/о н/о +24.5 +16.9 63 +28 +28 душно 1021.2 972.4
10 21.07 Ю 2
{4}
н/о н/о +26.0 +16.5 56 +30 +30 душно 1020.9 972.4
11 21.07 Ю 2
{6}
н/о н/о +26.7 +16.4 53 +30 +30 душно 1020.7 972.3
12 21.07 Ю 2
{6}
н/о н/о +28.0 +16.4 49 +31 +31 душно 1020.1 972.0
13 21.07 ЮЗ 3
{6}
н/о н/о +27.0 +15.1 48 +30 +30 душно 1020.1 971.8
14 21.07 ЮЗ 2
{4}
н/о н/о +27.9 +15.5 47 +31 +31 душно 1019.4 971.3
15 21.07 ЮЗ 2
{6}
н/о н/о +29.0 +16.0 45 +32 +32 душно 1019.0 971.1
16 21.07 СЗ 4
{7}
н/о н/о +30.8 +13.2 34 +32 +32 жарко 1018.5 970.9

 

Местоположение метеостанции Кресье (Швейцария): широта 47.05 долгота 7.07 высота над уровнем моря 431 м.

В архиве по умолчанию представлена погода в Кресье за последнюю неделю. Архивные данные за месяц целиком и за предыдущие месяцы, начиная с января 2011 года, Вы можете получить, выбрав интересующий диапазон дат из раскрывающегося списка и нажав кнопку "Ввод!".


*Определитесь, кто Вы:
робот инопланетянин человек

Внимание! Время в таблицах - всемирное. Для получения местного времени необходимо прибавить поправку, которая равна 1 ч.

Смотрите также архив погоды в соседних городах и на ближайших метеорологических станциях:

Погода на Шасрале (Швейцария) (9 км)
Погода в Невшателе (Швейцария) (11 км)
Погода в Мюлеберге (Швейцария) (18 км)
Погода Ла-Шо-де-Фон (Швейцария) (21 км)
Погода в Пейерне (Швейцария) (27 км)
Погода в Берне (Швейцария) (30 км)
Погода в Гренхене (Швейцария) (30 км)
Погода в Ла Бревине (Швейцария) (35 км)
Погода в Плаффайен-Обершроте (Швейцария) (37 км)
Погода в Делемоне (Швейцария) (41 км)

Пояснения к столбцам:

Ветер - указаны скорость ветра в м/с - средняя за 10 мин, порывы в срок и между сроками (в фигурных скобках) и направление, откуда дует ветер: С - северный, СВ - северо-восточный, В - восточный, ЮВ - юго-восточный, Ю - южный, ЮЗ - юго-западный, З - западный, СЗ - северо-западный.
Видимость - горизонтальная дальность видимости в метрах или километрах. При видимости от 1 до 10 км при отсутствии осадков обычно наблюдается дымка, при ухудшении видимости до 1 км и менее - туман. В сухую погоду видимость может ухудшаться дымом, пылью или мглою.
Явления - указаны атмосферные явления, наблюдавшиеся в срок или в последний час перед сроком; фигурными скобками обозначены явления, наблюдавшиеся между сроками (за 1-3 часа до срока); квадратными скобками обозначены град или гололедные отложения с указанием их диаметра в мм.
Облачность - указаны через наклонную черту общая и нижняя облачность в баллах и высота нижней границы облаков в метрах; квадратными скобками обозначены формы облаков: Ci - перистые, Cs - перисто-слоистые, Cc - перисто-кучевые, Ac - высококучевые, As - высокослоистые, Sc - слоисто-кучевые, Ns - слоисто-дождевые, Cu - кучевые, Cb - кучево-дождевые. Подробнее классификацию облаков см. в Атласе облаков (PDF).
T - Температура воздуха - температура, измеренная на высоте 2 м над землей.
Td - Температура точки росы - температура, при понижении до которой содержащийся в воздухе водяной пар достигнет насыщения.
f - Относительная влажность воздуха - влажноcть воздуха, измеренная на высоте 2 м над землей.
Te - Эффективная температура - температура, которую ощущает одетый по сезону человек в тени. Характеристика душности погоды. При расчете учитывается влияние влажности воздуха и скорости ветра на теплоощущения человека.
Tes - Эффективная температура на солнце - температура, которую ощущает человек, с поправкой на солнечный нагрев. Характеристика знойности погоды. Зависит от высоты солнца над горизонтом, облачности и скорости ветра. Ночью, в пасмурную погоду, а также при ветре 12 м/с и более поправка равна нулю.
P - Атмосферное давление - приведенное к уровню моря атмосферное давление.
Po - Атмосферное давление - измеренное на уровне метеостанции атмосферное давление.
Tmin - Минимальная температура - минимум температуры воздуха на высоте 2 м над землей.
Tmax - Максимальная температура - максимум температуры воздуха на высоте 2 м над землей.
R - Количество осадков - Количество выпавших осадков за период времени, мм. При наведении курсора мыши на число - период времени, за который выпало указанное количество осадков.
R24 - Количество осадков - Количество выпавших осадков за 24 часа, мм.
S - Снежный покров - Высота снежного покрова, см. При наведении курсора мыши на число - состояние снежного покрова и степень покрытия местности в баллах.